Location: İstanbul
(41.0082°N, 28.9784°E)
Time: 21:27:22
(UTC+02:00)

Oscar 11 - Pass Details

Date: 21 October 2021
Orbit: 614 x 623 km, 97.6° (Epoch: 01 December)

Event Time Altitude Azimuth Distance (km) Brightness Sun altitude
Rises 06:46:32 0° 9° (N) 2,903 10.5 -7.4°
Reaches altitude 10° 06:48:43 10° 7° (N) 1,994 9.7 -7.0°
Maximum altitude 06:53:02 69° 285° (WNW) 665 7.0 -6.2°
Drops below altitude 10° 06:57:20 10° 202° (SSW) 1,984 9.5 -5.4°
Sets 06:59:31 0° 200° (SSW) 2,887 10.4 -5.0°
